Location: Slatestone
(36.1859°N, 84.1963°W)
Time: 17:00:54
(UTC+00:00)

LightSail 2 - Visible Passes

Search period start: 05 April 2020 00:00
Search period end: 15 April 2020 00:00
Orbit: 694 x 725 km, 24.0° (Epoch: 04 April)

Date Brightness Start Highest point End Pass type
(mag) Time Alt. Az. Time Alt. Az. Time Alt. Az.
05 Apr 7.2 10:40:50 10° SSW 10:43:43 15° SSE 10:46:36 10° SE visible
06 Apr 7.3 09:43:08 11° S 09:44:41 13° SSE 09:46:50 10° SE visible
07 Apr 7.0 10:26:54 10° SW 10:30:19 18° S 10:33:42 10° SE visible
08 Apr 6.9 09:30:38 16° S 09:31:14 16° S 09:34:18 10° SE visible
09 Apr 6.8 10:13:47 12° SW 10:16:52 20° S 10:20:29 10° SE visible
10 Apr 6.8 09:18:04 19° S 09:18:04 19° S 09:21:15 10° SE visible
11 Apr 6.7 10:01:13 15° SW 10:03:24 20° S 10:07:01 10° SE visible
12 Apr 6.9 09:05:31 18° SSE 09:05:31 18° SSE 09:07:55 10° SE visible
13 Apr 6.7 09:48:43 17° SSW 09:49:53 18° S 09:53:18 10° SE visible
14 Apr 7.2 08:53:06 15° SSE 08:53:06 15° SSE 08:54:21 10° SE visible
14 Apr 7.1 10:33:15 10° SW 10:35:26 13° SSW 10:37:37 10° S visible
